• In Uzbekistan
  • List of Countries
  • For 7 days
  • Water Temperature
  • Satellite Maps
  • Weather Map
  • Weather Widgets
  • user-avatar
    Login

    Hourly Weather Bad Rippoldsau-Schapbach

    Today, 19 February, Monday

    Time Temperature Precipitation Wind Pressure Humidity
    00:00 -4°C° 0 mm 1 mps 703 mmHg 89%
    01:00 -6°C° 0 mm 1 mps 702 mmHg 91%
    02:00 -6°C° 0 mm 1 mps 702 mmHg 91%
    03:00 -6°C° 0 mm 1 mps 702 mmHg 91%
    04:00 -6°C° 0 mm 1 mps 701 mmHg 91%
    05:00 -6°C° 0 mm 1 mps 701 mmHg 91%
    06:00 -7°C° 0 mm 1 mps 701 mmHg 91%
    07:00 -7°C° 0 mm 1 mps 701 mmHg 90%
    08:00 -4°C° 0 mm 1 mps 701 mmHg 86%
    09:00 -3°C° 0 mm 1 mps 701 mmHg 83%
    10:00 -1°C° 0 mm 1 mps 701 mmHg 79%
    11:00 -1°C° 0 mm 0 mps 701 mmHg 76%
    12:00 0°C° 0 mm 0 mps 701 mmHg 74%
    13:00 +1°C° 0 mm 0 mps 701 mmHg 71%
    14:00 +1°C° 0 mm 0 mps 700 mmHg 71%
    15:00 +2°C° 0 mm 1 mps 700 mmHg 71%
    16:00 +2°C° 0 mm 1 mps 700 mmHg 71%
    17:00 +1°C° 0 mm 1 mps 699 mmHg 75%
    18:00 -1°C° 0 mm 0 mps 699 mmHg 79%
    19:00 -3°C° 0 mm 0 mps 699 mmHg 83%
    20:00 -3°C° 0 mm 0 mps 699 mmHg 84%
    21:00 -3°C° 0 mm 0 mps 699 mmHg 85%
    22:00 -4°C° 0 mm 0 mps 699 mmHg 85%
    23:00 -4°C° 0 mm 0 mps 699 mmHg 86%

    Tomorrow, 20 February, Tuesday

    Time Temperature Precipitation Wind Pressure Humidity
    00:00 -4°C° 0 mm 0 mps 698 mmHg 86%
    01:00 -4°C° 0 mm 0 mps 698 mmHg 86%
    02:00 -4°C° 0 mm 0 mps 698 mmHg 86%
    03:00 -4°C° 0 mm 0 mps 698 mmHg 86%
    04:00 -5°C° 0 mm 0 mps 698 mmHg 86%
    05:00 -5°C° 0 mm 0 mps 698 mmHg 87%
    06:00 -5°C° 0 mm 0 mps 698 mmHg 87%
    07:00 -4°C° 0 mm 1 mps 697 mmHg 88%
    08:00 -3°C° 0 mm 1 mps 698 mmHg 84%
    09:00 -2°C° 0 mm 1 mps 698 mmHg 80%
    10:00 0°C° 0 mm 1 mps 698 mmHg 76%
    11:00 0°C° 0 mm 1 mps 698 mmHg 72%
    12:00 -1°C° 0 mm 2 mps 698 mmHg 69%
    13:00 +1°C° 0 mm 2 mps 698 mmHg 66%
    14:00 +1°C° 0 mm 2 mps 698 mmHg 66%
    15:00 +1°C° 0 mm 2 mps 698 mmHg 66%
    16:00 +1°C° 0 mm 2 mps 698 mmHg 66%
    17:00 -2°C° 0 mm 2 mps 698 mmHg 71%
    18:00 -3°C° 0 mm 2 mps 698 mmHg 76%
    19:00 -5°C° 0 mm 2 mps 698 mmHg 81%
    20:00 -5°C° 0 mm 2 mps 699 mmHg 83%
    21:00 -3°C° 0 mm 1 mps 699 mmHg 84%
    22:00 -4°C° 0 mm 1 mps 699 mmHg 85%
    23:00 -4°C° 0 mm 1 mps 699 mmHg 86%

    Day after tomorrow, 21 February, Wednesday

    Time Temperature Precipitation Wind Pressure Humidity
    00:00 -4°C° 0 mm 1 mps 699 mmHg 88%
    01:00 -6°C° 0 mm 2 mps 699 mmHg 89%
    02:00 -6°C° 0 mm 2 mps 699 mmHg 90%
    03:00 -6°C° 0 mm 2 mps 700 mmHg 91%
    04:00 -6°C° 0 mm 2 mps 700 mmHg 91%
    05:00 -6°C° 0 mm 2 mps 700 mmHg 91%
    06:00 -6°C° 0 mm 2 mps 700 mmHg 91%
    07:00 -7°C° 0 mm 3 mps 700 mmHg 91%
    08:00 -6°C° 0 mm 3 mps 700 mmHg 87%
    09:00 -5°C° 0 mm 3 mps 701 mmHg 83%
    10:00 -4°C° 0 mm 3 mps 701 mmHg 80%
    11:00 -2°C° 0 mm 3 mps 701 mmHg 76%
    12:00 -2°C° 0 mm 4 mps 701 mmHg 72%
    13:00 -2°C° 0 mm 4 mps 700 mmHg 68%
    14:00 -1°C° 0 mm 4 mps 700 mmHg 67%
    15:00 -1°C° 0 mm 4 mps 700 mmHg 66%
    16:00 -1°C° 0 mm 4 mps 700 mmHg 65%
    17:00 -2°C° 0 mm 3 mps 700 mmHg 69%
    18:00 -4°C° 0 mm 3 mps 699 mmHg 74%
    19:00 -5°C° 0 mm 2 mps 699 mmHg 78%
    20:00 -5°C° 0 mm 2 mps 699 mmHg 79%
    21:00 -6°C° 0 mm 3 mps 699 mmHg 80%
    22:00 -7°C° 0 mm 3 mps 699 mmHg 81%
    23:00 -7°C° 0 mm 3 mps 699 mmHg 82%

    22 February, Thursday

    Time Temperature Precipitation Wind Pressure Humidity
    00:00 -7°C° 0 mm 3 mps 698 mmHg 82%
    01:00 -7°C° 0 mm 3 mps 698 mmHg 82%
    02:00 -7°C° 0 mm 3 mps 698 mmHg 82%
    03:00 -7°C° 0 mm 3 mps 698 mmHg 82%
    04:00 -8°C° 0 mm 4 mps 697 mmHg 81%
    05:00 -8°C° 0 mm 4 mps 697 mmHg 80%
    06:00 -8°C° 0 mm 4 mps 697 mmHg 78%
    07:00 -8°C° 0 mm 5 mps 697 mmHg 77%
    08:00 -7°C° 0 mm 5 mps 697 mmHg 74%
    09:00 -8°C° 0 mm 6 mps 697 mmHg 70%
    10:00 -6°C° 0 mm 6 mps 697 mmHg 67%
    11:00 -5°C° 0 mm 6 mps 697 mmHg 65%
    12:00 -4°C° 0 mm 6 mps 697 mmHg 63%
    13:00 -4°C° 0 mm 7 mps 696 mmHg 62%
    14:00 -4°C° 0 mm 6 mps 696 mmHg 62%
    15:00 -4°C° 0 mm 6 mps 696 mmHg 62%
    16:00 -4°C° 0 mm 6 mps 696 mmHg 63%
    17:00 -4°C° 0 mm 6 mps 696 mmHg 65%
    18:00 -5°C° 0 mm 6 mps 696 mmHg 68%
    19:00 -6°C° 0 mm 5 mps 696 mmHg 70%
    20:00 -6°C° 0 mm 5 mps 696 mmHg 71%
    21:00 -6°C° 0 mm 5 mps 696 mmHg 72%
    22:00 -7°C° 0 mm 5 mps 696 mmHg 73%
    23:00 -7°C° 0 mm 5 mps 696 mmHg 73%

    23 February, Friday

    Time Temperature Precipitation Wind Pressure Humidity
    00:00 -7°C° 0 mm 5 mps 696 mmHg 73%
    01:00 -7°C° 0 mm 5 mps 696 mmHg 73%
    02:00 -7°C° 0 mm 5 mps 696 mmHg 73%
    03:00 -7°C° 0 mm 5 mps 696 mmHg 73%
    04:00 -7°C° 0 mm 5 mps 695 mmHg 74%
    05:00 -7°C° 0 mm 5 mps 696 mmHg 74%
    06:00 -7°C° 0 mm 5 mps 696 mmHg 74%
    07:00 -8°C° 0 mm 5 mps 696 mmHg 75%
    08:00 -7°C° 0 mm 5 mps 696 mmHg 73%
    09:00 -6°C° 0 mm 5 mps 696 mmHg 71%
    10:00 -6°C° 0 mm 5 mps 697 mmHg 69%
    11:00 -5°C° 0 mm 6 mps 697 mmHg 67%
    12:00 -4°C° 0 mm 6 mps 697 mmHg 65%
    13:00 -3°C° 0 mm 6 mps 697 mmHg 63%
    14:00 -3°C° 0 mm 6 mps 697 mmHg 63%
    15:00 -3°C° 0 mm 6 mps 697 mmHg 64%
    16:00 -3°C° 0 mm 6 mps 697 mmHg 64%
    17:00 -3°C° 0 mm 6 mps 697 mmHg 65%
    18:00 -4°C° 0 mm 6 mps 698 mmHg 67%
    19:00 -5°C° 0 mm 5 mps 698 mmHg 68%
    20:00 -6°C° 0 mm 5 mps 698 mmHg 67%
    21:00 -6°C° 0 mm 6 mps 698 mmHg 67%
    22:00 -8°C° 0 mm 6 mps 699 mmHg 67%
    23:00 -8°C° 0 mm 6 mps 699 mmHg 67%

    24 February, Saturday

    Time Temperature Precipitation Wind Pressure Humidity
    00:00 -7°C° 0 mm 5 mps 699 mmHg 67%
    01:00 -8°C° 0 mm 5 mps 699 mmHg 67%
    02:00 -8°C° 0 mm 5 mps 699 mmHg 65%
    03:00 -10°C° 0 mm 5 mps 699 mmHg 64%
    04:00 -10°C° 0 mm 5 mps 700 mmHg 62%
    05:00 -10°C° 0 mm 5 mps 700 mmHg 60%
    06:00 -11°C° 0 mm 5 mps 700 mmHg 58%
    07:00 -11°C° 0 mm 5 mps 701 mmHg 56%
    08:00 -10°C° 0 mm 5 mps 701 mmHg 52%
    09:00 -10°C° 0 mm 5 mps 702 mmHg 48%
    10:00 -9°C° 0 mm 6 mps 702 mmHg 44%
    11:00 -8°C° 0 mm 6 mps 702 mmHg 43%
    12:00 -6°C° 0 mm 6 mps 703 mmHg 41%
    13:00 -5°C° 0 mm 6 mps 703 mmHg 39%
    14:00 -5°C° 0 mm 6 mps 703 mmHg 39%
    15:00 -5°C° 0 mm 6 mps 702 mmHg 40%
    16:00 -5°C° 0 mm 6 mps 702 mmHg 40%
    17:00 -6°C° 0 mm 6 mps 702 mmHg 42%
    18:00 -7°C° 0 mm 5 mps 702 mmHg 45%
    19:00 -8°C° 0 mm 5 mps 702 mmHg 47%
    20:00 -10°C° 0 mm 5 mps 702 mmHg 49%
    21:00 -10°C° 0 mm 5 mps 702 mmHg 50%
    22:00 -10°C° 0 mm 5 mps 702 mmHg 52%
    23:00 -11°C° 0 mm 5 mps 702 mmHg 54%
    Show more